ARIANE 40+ R/B

Last updated on Sun Jun 21 2026 00:02:15 GMT+0000 (Coordinated Universal Time)

1 23561U 95021B 26171.44974659 .00000182 00000+0 71985-4 0 9993 2 23561 98.4410 241.4776 0006659 183.5948 187.0806 14.39834891634036
UTC large
Height (km)
Speed (km/s)
/
Latitude / Longitude
Inclination (degrees)
Orbital Period (minutes)
Azimuth
Elevation
Range (km)
Doppler Factor

Next 0 passes for location: London (51.5072 / 0.1276)

No passes found over London.
ARIANE 40+ R/B